Wind_Speed
57 51 49 50 54 57 49 48 48 51 45 45 47 45 43 45 43 46 47 44 41 44 47 44 43 37 35 35 34 31 30 36
65 56 50 53 55 56 52 47 48 50 48 46 46 44 44 44 43 44 49 49 47 48 49 48 45 40 38 37 33 33 36 38
57 60 53 52 54 55 51 46 49 51 48 39 41 42 47 45 46 46 49 52 53 51 49 48 46 42 40 36 32 33 36 27
58 54 55 52 58 56 50 47 48 48 49 43 43 44 49 52 48 47 47 53 55 55 53 50 45 43 40 36 30 30 36 36
63 53 53 56 57 61 57 52 50 49 49 49 46 43 46 45 43 44 45 47 54 58 56 51 47 45 42 40 35 29 35 34
64 58 55 58 58 60 56 55 52 48 50 50 48 44 43 45 46 45 45 45 47 57 57 55 52 48 45 42 38 31 33 36
61 57 58 55 56 50 47 54 52 51 51 49 51 44 43 49 47 47 44 45 46 50 57 58 53 49 47 44 43 38 34 35
56 62 56 56 60 51 48 54 54 51 52 51 52 45 48 49 47 51 48 44 47 45 47 55 57 56 54 50 46 44 39 35
51 46 61 58 56 58 50 51 54 50 52 51 51 50 50 50 50 52 53 50 45 44 44 49 58 61 61 58 55 50 46 41
39 40 44 53 56 61 59 49 49 50 52 53 51 53 52 48 51 50 50 51 50 47 48 49 54 62 64 60 59 56 51 47
30 39 40 43 50 62 61 53 50 53 53 52 51 50 50 47 47 48 50 52 52 50 50 49 53 55 61 63 61 57 58 54
24 40 36 35 47 63 62 57 54 54 55 53 54 53 51 49 48 46 48 50 51 53 52 55 56 57 60 61 61 59 58 59
23 32 37 34 43 55 58 58 57 56 57 54 56 54 52 54 50 51 50 51 52 50 54 55 53 59 49 58 60 64 60 61
23 26 29 40 46 50 55 56 57 55 55 54 55 55 57 59 57 52 52 54 54 54 54 49 48 49 46 50 47 56 65 55
31 40 47 48 52 48 51 53 54 56 57 57 56 55 56 58 58 57 55 56 57 62 64 54 61 51 56 48 42 35 46 50
34 28 33 53 54 51 40 47 57 59 58 58 58 58 58 58 59 63 61 60 61 66 65 57 45 39 31 43 46 44 45 40
23 22 34 23 47 64 58 47 48 48 57 58 54 54 57 54 58 58 63 68 71 72 62 51 53 43 44 50 38 41 48 43
16 18 22 28 23 24 57 64 60 55 53 63 57 54 49 60 55 56 61 63 69 68 65 68 62 53 58 51 49 49 53 48
12 12 20 22 24 28 17 31 32 62 61 54 60 66 68 66 62 59 55 60 65 70 73 66 57 65 62 55 58 53 54 51
Wind_Direction
255 249 247 246 250 251 246 241 244 241 230 227 223 231 229 230 225 225 222 222 224 227 227 232 233 229 234 243 248 236 235 223
252 246 242 241 244 246 242 241 244 243 238 229 222 228 233 234 233 231 226 223 223 227 230 230 231 232 231 237 241 233 230 232
251 245 243 241 240 245 245 240 245 245 242 226 224 232 233 233 233 234 233 226 223 228 230 231 232 236 236 238 234 235 230 235
249 247 238 239 236 238 242 239 241 244 242 231 227 232 231 232 235 235 232 228 224 227 231 232 232 236 240 241 241 231 224 230
248 243 239 234 237 230 234 239 240 242 241 235 228 232 238 239 240 243 245 234 228 225 231 233 233 235 239 243 240 232 224 225
244 239 238 229 231 231 233 235 237 238 239 235 233 232 236 239 237 238 236 236 232 227 227 232 233 234 237 246 248 246 237 230
238 237 233 231 230 233 233 234 234 237 240 236 235 235 232 236 237 237 235 233 229 228 230 231 235 237 236 242 246 248 248 236
236 234 231 228 225 226 230 231 231 233 240 235 235 235 232 233 235 235 236 238 235 230 230 231 234 236 237 237 242 245 247 248
227 238 233 221 222 222 226 228 226 228 233 231 233 231 229 232 234 235 236 240 238 232 232 229 230 232 236 236 238 242 244 242
224 233 228 226 224 220 223 225 222 224 228 228 231 231 228 232 233 237 238 240 240 234 232 232 230 231 235 238 239 239 244 246
214 214 216 219 217 216 217 222 223 219 226 226 231 230 229 228 231 236 240 239 240 235 233 234 233 234 235 238 240 240 242 245
209 215 209 216 214 211 213 220 224 223 224 228 230 229 230 229 231 236 240 241 241 242 238 235 235 235 238 240 242 243 244 248
217 207 218 218 215 209 215 219 222 220 222 225 229 229 226 232 231 234 237 238 240 241 242 239 240 240 241 240 244 244 244 248
220 226 224 215 211 211 213 216 219 217 219 223 228 230 230 230 231 232 234 237 238 242 245 246 235 243 241 243 244 247 247 250
216 222 198 194 205 209 213 215 216 218 221 223 227 229 231 232 234 231 235 236 238 238 239 233 236 240 238 229 236 250 232 244
195 194 211 175 184 209 201 212 215 217 221 222 227 228 227 229 232 236 233 237 238 238 236 235 223 245 232 213 234 243 242 239
212 211 212 192 174 183 202 202 208 215 214 217 223 226 224 223 234 233 234 234 238 239 235 232 230 243 232 248 247 249 253 257
190 212 223 220 206 182 183 197 195 209 214 215 218 222 223 210 230 235 235 235 238 242 246 245 250 244 243 248 249 252 249 252
288 243 220 220 222 226 222 201 183 196 208 211 223 231 226 228 229 228 232 234 234 236 243 243 233 249 254 246 248 245 251 255
Height
5703 5706 5710 5715 5718 5719 5724 5729 5737 5741 5743 5745 5749 5758 5764 5769 5774 5780 5785 5790 5795 5798 5802 5806 5812 5816 5820 5823 5828 5832 5836 5838
5683 5688 5693 5697 5704 5705 5709 5717 5725 5729 5733 5735 5743 5749 5756 5762 5766 5772 5776 5781 5784 5788 5793 5796 5801 5808 5812 5817 5819 5825 5828 5831
5667 5673 5679 5685 5690 5694 5697 5706 5711 5717 5723 5729 5735 5742 5746 5752 5757 5760 5767 5772 5775 5777 5784 5788 5793 5798 5803 5809 5813 5817 5821 5825
5648 5655 5663 5671 5675 5682 5686 5692 5699 5705 5713 5718 5723 5729 5732 5736 5743 5747 5755 5761 5766 5769 5774 5778 5784 5789 5794 5800 5805 5809 5815 5819
5628 5638 5646 5656 5662 5666 5672 5679 5686 5692 5699 5705 5710 5718 5725 5732 5738 5742 5747 5752 5756 5759 5763 5771 5777 5783 5786 5791 5797 5802 5806 5811
5609 5619 5627 5636 5642 5649 5657 5664 5671 5679 5685 5693 5701 5707 5716 5722 5724 5730 5735 5742 5746 5748 5754 5761 5768 5776 5780 5782 5787 5793 5798 5802
5589 5601 5611 5622 5632 5639 5646 5651 5659 5667 5674 5684 5690 5698 5707 5710 5715 5720 5727 5733 5738 5739 5743 5751 5757 5764 5772 5776 5779 5784 5789 5794
5572 5582 5594 5606 5617 5625 5633 5639 5648 5655 5663 5673 5680 5689 5695 5700 5706 5711 5717 5724 5728 5733 5739 5744 5751 5757 5762 5768 5770 5774 5780 5786
5559 5568 5578 5591 5602 5613 5622 5627 5636 5644 5651 5661 5670 5678 5684 5691 5696 5701 5707 5714 5720 5725 5728 5735 5739 5745 5750 5756 5761 5765 5770 5775
5548 5558 5566 5576 5590 5600 5610 5617 5625 5633 5641 5650 5658 5666 5675 5681 5685 5691 5698 5704 5710 5715 5718 5724 5728 5733 5738 5744 5750 5757 5759 5764
5538 5548 5556 5565 5575 5587 5599 5606 5614 5622 5631 5638 5646 5655 5664 5670 5674 5680 5687 5693 5698 5705 5709 5712 5717 5722 5728 5733 5739 5746 5751 5754
5532 5541 5548 5556 5566 5576 5586 5595 5604 5611 5618 5627 5636 5643 5652 5657 5663 5670 5677 5683 5687 5693 5699 5702 5706 5710 5716 5722 5729 5734 5740 5745
5528 5534 5541 5549 5558 5565 5575 5584 5592 5601 5608 5617 5625 5632 5640 5646 5653 5658 5666 5671 5676 5680 5685 5687 5693 5698 5704 5711 5718 5722 5726 5732
5523 5528 5532 5539 5548 5556 5566 5574 5582 5591 5599 5607 5615 5621 5628 5633 5640 5647 5654 5660 5665 5669 5674 5680 5679 5686 5692 5699 5703 5707 5715 5723
5520 5523 5523 5523 5536 5546 5554 5563 5572 5581 5588 5595 5603 5611 5617 5622 5628 5637 5644 5649 5653 5654 5660 5658 5669 5671 5678 5685 5691 5692 5700 5706
5513 5517 5521 5517 5524 5536 5545 5551 5560 5569 5578 5586 5591 5598 5603 5609 5617 5622 5633 5637 5639 5645 5640 5648 5639 5659 5659 5661 5672 5684 5687 5688
5510 5513 5515 5514 5513 5519 5534 5541 5551 5558 5566 5573 5579 5586 5594 5602 5604 5610 5615 5621 5623 5631 5636 5636 5649 5655 5654 5661 5665 5668 5676 5679
5511 5513 5513 5513 5513 5512 5518 5530 5536 5547 5554 5558 5567 5574 5576 5574 5590 5596 5603 5607 5611 5618 5623 5627 5635 5639 5643 5646 5652 5660 5665 5670
5509 5510 5512 5513 5514 5515 5514 5519 5517 5527 5539 5541 5554 5558 5564 5568 5576 5581 5587 5595 5600 5607 5608 5619 5616 5624 5628 5636 5643 5648 5652 5658